Voltar ao catálogo

ARIANE 44L+3 R/B

AtivoHEO
NORAD 23732·ROCKET BODY·🇫🇷 France

Lançado Dec 6, 1995 de Guiana Space Centre

Loading…

Próximas Passagens (próximas 24 horas)

TLE

AtualizadoSource: Space-Track

Época: Sep 14, 2026, 11:40 UTC

1 23732U 95067C   26257.48630258  .00002266  00000-0  11380-2 0  9993
2 23732   7.1546  19.8200 6633824  98.7923 336.0142  3.09913376300869

Acompanhe ARIANE 44L+3 R/B em tempo real com AllMySat

Download on the App Store